Printer-friendly version
Follow the MPC on Twitter Follow the MPC on Facebook Follow the MPC on Google+ The MPC blog See all the MPC RSS feeds

MPEC 1997-S15 : 1997 SE5

The following Minor Planet Electronic Circular may be linked-to from your own Web pages, but must not otherwise be redistributed electronically.

A form allowing access to any MPEC is at the bottom of this page.


Read MPEC 1997-S14 Read MPEC 1997-S16


M.P.E.C. 1997-S15                                Issued 1997 Sept. 29, 19:31 UT

     The Minor Planet Electronic Circulars contain information on unusual
         minor planets and routine data on comets.  They are published
   on behalf of Commission 20 of the International Astronomical Union by the
          Minor Planet Center, Smithsonian Astrophysical Observatory,
                          Cambridge, MA 02138, U.S.A.

             BMARSDEN@CFA.HARVARD.EDU or GWILLIAMS@CFA.HARVARD.EDU
                   URL http://cfa-www.harvard.edu/iau/mpc.html

                                   1997 SE5

Observations:
     J97S05E  C1997 06 28.23819 18 42 28.56 -24 19 27.8                      704
     J97S05E  C1997 06 28.24038 18 42 28.44 -24 19 27.5                      704
     J97S05E  C1997 06 28.26189 18 42 27.38 -24 19 24.5                      704
     J97S05E  C1997 06 28.26409 18 42 27.34 -24 19 24.7                      704
     J97S05E  C1997 06 28.28538 18 42 26.35 -24 19 21.4                      704
     J97S05E  C1997 06 28.28758 18 42 26.28 -24 19 21.4                      704
     J97S05E  C1997 06 29.23461 18 41 49.34 -24 16 56.9          17.8        704
     J97S05E  C1997 06 29.25818 18 41 48.36 -24 16 50.1                      704
     J97S05E  C1997 06 29.28174 18 41 47.24 -24 16 44.1                      704
     J97S05E  C1997 06 29.30534 18 41 46.26 -24 16 42.4                      704
     J97S05E  C1997 06 29.32888 18 41 45.12 -24 16 37.6                      704
     J97S05E  C1997 07 02.27813 18 39 43.00 -24 08 23.9                      704
     J97S05E  C1997 07 02.30151 18 39 41.86 -24 08 19.5                      704
     J97S05E  C1997 07 02.32480 18 39 40.76 -24 08 15.4                      704
     J97S05E  C1997 07 02.34810 18 39 39.63 -24 08 11.4                      704
     J97S05E  C1997 07 02.37139 18 39 38.46 -24 08 06.3                      704
     J97S05E* C1997 09 28.40854 20 11 06.05 -12 56 24.4          15.4 V      566
     J97S05E  C1997 09 28.41922 20 11 08.38 -12 56 14.6          15.3 V      566
     J97S05E  C1997 09 28.42957 20 11 10.63 -12 56 05.3          15.4 V      566
     J97S05E  C1997 09 28.83337 20 12 42.17 -12 50 17.2          15.6 V      046
     J97S05E  C1997 09 28.83469 20 12 42.46 -12 50 16.0                      046
     J97S05E  C1997 09 28.83610 20 12 42.77 -12 50 14.8                      046
     J97S05E  C1997 09 28.83800 20 12 43.19 -12 50 13.1                      046
     J97S05E  C1997 09 28.83938 20 12 43.48 -12 50 11.8                      046
     J97S05E  C1997 09 28.84079 20 12 43.80 -12 50 10.5                      046
     J97S05E  C1997 09 29.11180 20 13 45.47 -12 46 06.6          15.9 V      670
     J97S05E  C1997 09 29.12014 20 13 47.28 -12 45 59.3          15.8 V      670
     J97S05E  C1997 09 29.14097 20 13 51.82 -12 45 40.6          15.7 V      670
     J97S05E  C1997 09 29.16181 20 13 56.37 -12 45 22.1          15.7 V      670
     J97S05E  C1997 09 29.18264 20 14 00.90 -12 45 03.3          15.9 V      670
     J97S05E  C1997 09 29.20347 20 14 05.45 -12 44 44.6          16.2 V      670
     J97S05E  C1997 09 29.48504 20 15 09.09 -12 40 31.8          15.6 V      900
     J97S05E  C1997 09 29.49428 20 15 11.11 -12 40 23.7                      900
     J97S05E  C1997 09 29.75403 20 16 10.49 -12 36 32.8          15.5 V      046
     J97S05E  C1997 09 29.75537 20 16 10.79 -12 36 31.8                      046
     J97S05E  C1997 09 29.75700 20 16 11.16 -12 36 30.3                      046

Observer details:
046 Klet.  Observers J. Ticha, M. Tichy, Z. Moravec.  Measurer M. Tichy.
    0.57-m f/5.2 reflector + CCD.
566 Haleakala-NEAT/GEODSS.  Observers E. F. Helin, S. Pravdo, K. J. Lawrence,
    D. L. Rabinowitz for the NEAT team.  1.0-m f/2.2 GEODSS telescope + CCD.
670 Camarillo.  Observer J. E. Rogers.  0.25-m Schmidt-Cassegrain + CCD.
704 Lincoln Laboratory ETS, New Mexico.  Observers M. Blythe, F. Shelly.
    Measurers J. Stuart, H. Viggh, J. Sharma.  1.0-m f/2.15 reflector + CCD.
900 Moriyama.  Observer Y. Ikari.  0.25-m f/6.3 reflector + CCD.

Orbital elements:
1997 SE5
Epoch 1997 Dec. 18.0 TT = JDT 2450800.5                 Williams
M  11.66607              (2000.0)            P               Q
n   0.13743434     Peri.   56.39173     +0.96257368     +0.26753019
a   3.7188261      Node   288.05837     -0.26130919     +0.87369619
e   0.6671911      Incl.    2.61356     -0.07189866     +0.40630354
P   7.17           H   15.5           G   0.15           U   5
From 34 observations 1997 June 28-Sept. 29, mean residual 0".38.

Ephemeris:
1997 SE5                 a,e,i = 3.72, 0.67, 3                   q = 1.2377
Date    TT    R. A. (2000) Decl.     Delta      r     Elong.  Phase     V
1997 09 29    20 13.33   -12 47.5    0.408    1.239   116.5    46.3    15.8
1997 10 04    20 32.49   -11 30.1    0.417    1.244   116.5    46.0    15.8
1997 10 09    20 52.24   -10 07.1    0.429    1.252   116.6    45.5    15.9
1997 10 14    21 12.27   -08 39.5    0.445    1.263   116.9    44.8    16.0
1997 10 19    21 32.26   -07 08.8    0.464    1.277   117.2    44.0    16.1
1997 10 24    21 51.97   -05 36.7    0.487    1.293   117.4    43.1    16.2
1997 10 29    22 11.20   -04 04.6    0.515    1.313   117.4    42.2    16.3
1997 11 03    22 29.81   -02 33.7    0.546    1.334   117.4    41.3    16.4
1997 11 08    22 47.73   -01 04.9    0.582    1.358   117.1    40.5    16.6
1997 11 13    23 04.90   +00 21.0    0.621    1.385   116.6    39.7    16.7
1997 11 18    23 21.30   +01 43.5    0.665    1.413   116.0    39.0    16.9
1997 11 23    23 36.94   +03 02.4    0.713    1.442   115.1    38.3    17.1
1997 11 28    23 51.89   +04 17.8    0.765    1.473   113.9    37.7    17.3
1997 12 03    00 06.19   +05 29.8    0.821    1.506   112.6    37.2    17.5
1997 12 08    00 19.91   +06 38.6    0.880    1.540   111.2    36.6    17.6
1997 12 13    00 33.10   +07 44.3    0.943    1.575   109.6    36.1    17.8
1997 12 18    00 45.81   +08 47.1    1.009    1.611   107.8    35.6    18.0
1997 12 23    00 58.10   +09 47.1    1.079    1.647   105.9    35.1    18.2
1997 12 28    01 10.02   +10 44.6    1.152    1.684   103.9    34.5    18.4
1998 01 02    01 21.63   +11 39.8    1.227    1.722   101.8    34.0    18.5
1998 01 07    01 32.96   +12 32.7    1.306    1.761    99.6    33.4    18.7
1998 01 12    01 44.04   +13 23.4    1.387    1.800    97.3    32.8    18.9
1998 01 17    01 54.89   +14 12.0    1.470    1.839    95.0    32.2    19.0
1998 01 22    02 05.56   +14 58.5    1.555    1.878    92.6    31.6    19.2
1998 01 27    02 16.07   +15 43.0    1.643    1.918    90.2    30.9    19.3
1998 02 01    02 26.44   +16 25.6    1.732    1.957    87.7    30.2    19.5
1998 02 06    02 36.68   +17 06.2    1.822    1.997    85.1    29.5    19.6
1998 02 11    02 46.80   +17 44.8    1.914    2.037    82.6    28.7    19.7
1998 02 16    02 56.82   +18 21.5    2.007    2.077    80.0    27.9    19.8
1998 02 21    03 06.75   +18 56.1    2.101    2.117    77.4    27.1    20.0
1998 02 26    03 16.59   +19 28.9    2.195    2.157    74.7    26.3    20.1
1998 03 03    03 26.36   +19 59.6    2.290    2.197    72.0    25.4    20.2
1998 03 08    03 36.06   +20 28.4    2.384    2.236    69.4    24.5    20.3
1998 03 13    03 45.69   +20 55.3    2.479    2.276    66.7    23.6    20.4
1998 03 18    03 55.24   +21 20.1    2.573    2.316    63.9    22.7    20.5

Gareth V. Williams           (C) Copyright 1997 MPC           M.P.E.C. 1997-S15

Read MPEC 1997-S14 Read MPEC 1997-S16


MPEC number:

Enter an MPEC number in one of the following forms:

  • 1997-B01 (the full form)
  • J97B01 (the packed version of the full form)
  • B01 (the abbreviated form)

Valid HTML 4.01!